Time,TemperatureF,DewpointF,PressureIn,WindDirection,WindDirectionDegrees,WindSpeedMPH,WindSpeedGustMPH,Humidity,HourlyPrecipIn,Conditions,Clouds,dailyrainin,SoftwareType,DateUTC
2013-03-27 00:04:00,60.0,49.4,29.89,SW,230,0.0,0.0,68,0.00,OVC,,0.00,WeatherDisplay:10.37,2013-03-27 07:04:00,
2013-03-27 00:09:00,59.9,49.7,29.89,SW,231,0.0,0.0,69,0.00,OVC,,0.00,WeatherDisplay:10.37,2013-03-27 07:09:00,
2013-03-27 00:14:00,59.8,49.6,29.89,SW,231,0.0,0.0,69,0.00,OVC,,0.00,WeatherDisplay:10.37,2013-03-27 07:14:00,
2013-03-27 00:19:00,59.7,49.5,29.89,SW,231,0.0,0.0,69,0.00,OVC,,0.00,WeatherDisplay:10.37,2013-03-27 07:19:00,
2013-03-27 00:24:00,59.7,49.5,29.89,SW,231,0.0,0.0,69,0.00,OVC,,0.00,WeatherDisplay:10.37,2013-03-27 07:24:00,
2013-03-27 00:29:00,59.7,49.5,29.89,SW,231,0.0,0.0,69,0.00,OVC,,0.00,WeatherDisplay:10.37,2013-03-27 07:29:00,
2013-03-27 00:34:00,59.6,49.4,29.89,SW,231,0.0,0.0,69,0.00,OVC,,0.00,WeatherDisplay:10.37,2013-03-27 07:34:00,
2013-03-27 00:39:00,59.6,49.4,29.89,SW,229,0.0,0.0,69,0.00,OVC,,0.00,WeatherDisplay:10.37,2013-03-27 07:39:00,
2013-03-27 00:44:00,59.6,49.4,29.89,SW,231,0.0,0.0,69,0.00,OVC,,0.00,WeatherDisplay:10.37,2013-03-27 07:44:00,
2013-03-27 00:49:00,59.6,49.4,29.89,SW,231,0.0,0.0,69,0.00,OVC,,0.00,WeatherDisplay:10.37,2013-03-27 07:49:00,
2013-03-27 00:54:00,59.5,48.9,29.89,SW,230,0.0,0.0,68,0.00,OVC,,0.00,WeatherDisplay:10.37,2013-03-27 07:54:00,
2013-03-27 00:59:00,59.4,48.8,29.89,SW,231,0.0,0.0,68,0.00,OVC,,0.00,WeatherDisplay:10.37,2013-03-27 07:59:00,
2013-03-27 01:04:00,59.4,49.2,29.89,SW,231,0.0,0.0,69,0.00,OVC,,0.00,WeatherDisplay:10.37,2013-03-27 08:04:00,
2013-03-27 01:09:00,59.3,48.7,29.89,SW,231,0.0,0.0,68,0.00,OVC,,0.00,WeatherDisplay:10.37,2013-03-27 08:09:00,
2013-03-27 01:14:00,59.2,48.6,29.89,SW,231,0.0,0.0,68,0.00,OVC,,0.00,WeatherDisplay:10.37,2013-03-27 08:14:00,
2013-03-27 01:19:00,59.1,48.5,29.89,SW,230,0.0,0.0,68,0.00,OVC,,0.00,WeatherDisplay:10.37,2013-03-27 08:19:00,
2013-03-27 01:24:00,59.0,48.4,29.89,SW,230,0.0,0.0,68,0.00,OVC,,0.00,WeatherDisplay:10.37,2013-03-27 08:24:00,
2013-03-27 01:29:00,58.9,48.7,29.88,SW,231,0.0,0.0,69,0.00,OVC,,0.00,WeatherDisplay:10.37,2013-03-27 08:29:00,
2013-03-27 01:34:00,58.7,48.9,29.88,SW,231,0.0,0.0,70,0.00,OVC,,0.00,WeatherDisplay:10.37,2013-03-27 08:34:00,
2013-03-27 01:39:00,58.5,49.1,29.88,SW,231,0.0,0.0,71,0.00,OVC,,0.00,WeatherDisplay:10.37,2013-03-27 08:39:00,
2013-03-27 01:44:00,58.2,48.5,29.88,SW,231,0.0,0.0,70,0.00,OVC,,0.00,WeatherDisplay:10.37,2013-03-27 08:44:00,
2013-03-27 01:49:00,58.0,48.6,29.88,SW,231,0.0,0.0,71,0.00,OVC,,0.00,WeatherDisplay:10.37,2013-03-27 08:49:00,
2013-03-27 01:54:00,57.8,48.5,29.88,SW,231,0.0,0.0,71,0.00,OVC,,0.00,WeatherDisplay:10.37,2013-03-27 08:54:00,
2013-03-27 01:59:00,57.7,48.7,29.88,SW,230,0.0,0.0,72,0.00,OVC,,0.00,WeatherDisplay:10.37,2013-03-27 08:59:00,
2013-03-27 02:04:00,57.5,48.5,29.88,SW,230,0.0,0.0,72,0.00,OVC,,0.00,WeatherDisplay:10.37,2013-03-27 09:04:00,
2013-03-27 02:09:00,57.4,48.8,29.88,SW,230,0.0,0.0,73,0.00,OVC,,0.00,WeatherDisplay:10.37,2013-03-27 09:09:00,
2013-03-27 02:14:00,57.3,48.3,29.88,SW,231,0.0,0.0,72,0.00,OVC,,0.00,WeatherDisplay:10.37,2013-03-27 09:14:00,
2013-03-27 02:19:00,57.2,48.3,29.88,SW,231,0.0,0.0,72,0.00,BKN,,0.00,WeatherDisplay:10.37,2013-03-27 09:19:00,
2013-03-27 02:24:00,57.0,48.1,29.88,SW,230,0.0,0.0,72,0.00,BKN,,0.00,WeatherDisplay:10.37,2013-03-27 09:24:00,
2013-03-27 02:29:00,56.8,47.9,29.88,SW,231,0.0,0.0,72,0.00,BKN,,0.00,WeatherDisplay:10.37,2013-03-27 09:29:00,
2013-03-27 02:34:00,56.6,47.7,29.88,SW,231,0.0,0.0,72,0.00,FEW,,0.00,WeatherDisplay:10.37,2013-03-27 09:34:00,
2013-03-27 02:39:00,56.3,47.8,29.88,SW,231,0.0,0.0,73,0.00,FEW,,0.00,WeatherDisplay:10.37,2013-03-27 09:39:00,
2013-03-27 02:44:00,56.0,47.8,29.88,SW,231,0.0,0.0,74,0.00,FEW,,0.00,WeatherDisplay:10.37,2013-03-27 09:44:00,
2013-03-27 02:49:00,55.8,47.6,29.87,SW,230,0.0,0.0,74,0.00,FEW,,0.00,WeatherDisplay:10.37,2013-03-27 09:49:00,
2013-03-27 02:54:00,55.8,47.6,29.87,SW,231,0.0,0.0,74,0.00,FEW,,0.00,WeatherDisplay:10.37,2013-03-27 09:54:00,
2013-03-27 02:59:00,55.6,47.4,29.87,SW,230,0.0,0.0,74,0.00,FEW,,0.00,WeatherDisplay:10.37,2013-03-27 09:59:00,
2013-03-27 03:04:00,55.7,47.9,29.87,SE,139,0.0,0.0,75,0.00,CLR,,0.00,WeatherDisplay:10.37,2013-03-27 10:04:00,
2013-03-27 03:09:00,55.8,47.6,29.87,SE,139,1.2,0.0,74,0.00,CLR,,0.00,WeatherDisplay:10.37,2013-03-27 10:09:00,
2013-03-27 03:14:00,55.8,47.6,29.87,SE,140,0.0,0.0,74,0.00,CLR,,0.00,WeatherDisplay:10.37,2013-03-27 10:14:00,
2013-03-27 03:19:00,55.8,47.3,29.87,SE,139,0.0,0.0,73,0.00,CLR,,0.00,WeatherDisplay:10.37,2013-03-27 10:19:00,
2013-03-27 03:24:00,55.7,47.5,29.87,SE,140,0.0,0.0,74,0.00,CLR,,0.00,WeatherDisplay:10.37,2013-03-27 10:24:00,
2013-03-27 03:29:00,55.4,47.2,29.87,SE,139,0.0,0.0,74,0.00,CLR,,0.00,WeatherDisplay:10.37,2013-03-27 10:29:00,
2013-03-27 03:34:00,55.2,47.1,29.87,SE,143,0.0,0.0,74,0.00,CLR,,0.00,WeatherDisplay:10.37,2013-03-27 10:34:00,
2013-03-27 03:39:00,55.0,47.2,29.88,South,176,0.0,0.0,75,0.00,CLR,,0.00,WeatherDisplay:10.37,2013-03-27 10:39:00,
2013-03-27 03:44:00,54.7,46.9,29.88,SSE,156,0.0,0.0,75,0.00,CLR,,0.00,WeatherDisplay:10.37,2013-03-27 10:44:00,
2013-03-27 03:49:00,54.5,47.1,29.88,ESE,122,1.2,1.2,76,0.00,CLR,,0.00,WeatherDisplay:10.37,2013-03-27 10:49:00,
2013-03-27 03:54:00,54.3,46.9,29.88,SE,129,1.2,1.2,76,0.00,CLR,,0.00,WeatherDisplay:10.37,2013-03-27 10:54:00,
2013-03-27 03:59:00,54.0,46.6,29.88,ESE,117,2.0,2.0,76,0.00,CLR,,0.00,WeatherDisplay:10.37,2013-03-27 10:59:00,
2013-03-27 04:04:00,53.9,46.9,29.88,SE,129,0.0,0.0,77,0.00,CLR,,0.00,WeatherDisplay:10.37,2013-03-27 11:04:00,
2013-03-27 04:09:00,53.7,46.7,29.88,ESE,117,1.2,0.0,77,0.00,CLR,,0.00,WeatherDisplay:10.37,2013-03-27 11:09:00,
2013-03-27 04:14:00,53.5,46.5,29.88,SE,125,1.2,0.0,77,0.00,CLR,,0.00,WeatherDisplay:10.37,2013-03-27 11:14:00,
2013-03-27 04:19:00,53.3,46.3,29.88,ESE,122,2.3,2.3,77,0.00,CLR,,0.00,WeatherDisplay:10.37,2013-03-27 11:19:00,
2013-03-27 04:24:00,53.1,46.1,29.88,SE,128,0.0,0.1,77,0.00,CLR,,0.00,WeatherDisplay:10.37,2013-03-27 11:24:00,
2013-03-27 04:29:00,53.0,46.3,29.88,ESE,120,0.0,0.0,78,0.00,CLR,,0.00,WeatherDisplay:10.37,2013-03-27 11:29:00,
2013-03-27 04:34:00,52.9,46.2,29.89,ESE,120,0.0,0.0,78,0.00,CLR,,0.00,WeatherDisplay:10.37,2013-03-27 11:34:00,
2013-03-27 04:39:00,52.8,46.1,29.89,ESE,120,0.0,0.0,78,0.00,CLR,,0.00,WeatherDisplay:10.37,2013-03-27 11:39:00,
2013-03-27 04:44:00,52.6,45.9,29.89,ESE,120,0.0,0.0,78,0.00,CLR,,0.00,WeatherDisplay:10.37,2013-03-27 11:44:00,
2013-03-27 04:49:00,52.6,45.9,29.89,ESE,120,1.2,0.0,78,0.00,CLR,,0.00,WeatherDisplay:10.37,2013-03-27 11:49:00,
2013-03-27 04:54:00,52.5,45.8,29.89,SE,126,0.0,0.0,78,0.00,CLR,,0.00,WeatherDisplay:10.37,2013-03-27 11:54:00,
2013-03-27 04:59:00,52.4,45.7,29.89,SE,131,1.2,0.0,78,0.00,CLR,,0.00,WeatherDisplay:10.37,2013-03-27 11:59:00,
2013-03-27 05:04:00,52.3,45.6,29.89,SE,130,0.0,0.0,78,0.00,CLR,,0.00,WeatherDisplay:10.37,2013-03-27 12:04:00,
2013-03-27 05:09:00,52.2,45.9,29.89,SE,131,0.0,0.0,79,0.00,CLR,,0.00,WeatherDisplay:10.37,2013-03-27 12:09:00,
2013-03-27 05:14:00,52.1,45.8,29.89,SE,131,0.0,0.0,79,0.00,CLR,,0.00,WeatherDisplay:10.37,2013-03-27 12:14:00,
2013-03-27 05:19:00,52.0,45.7,29.89,SE,128,1.2,0.0,79,0.00,CLR,,0.00,WeatherDisplay:10.37,2013-03-27 12:19:00,
2013-03-27 05:24:00,52.0,45.7,29.90,SE,128,1.2,1.2,79,0.00,CLR,,0.00,WeatherDisplay:10.37,2013-03-27 12:24:00,
2013-03-27 05:29:00,52.0,45.7,29.89,SE,139,0.0,0.5,79,0.00,CLR,,0.00,WeatherDisplay:10.37,2013-03-27 12:29:00,
2013-03-27 05:34:00,52.1,45.4,29.90,SE,129,1.2,0.0,78,0.00,CLR,,0.00,WeatherDisplay:10.37,2013-03-27 12:34:00,
2013-03-27 05:39:00,52.1,45.4,29.90,SE,131,0.0,0.1,78,0.00,CLR,,0.00,WeatherDisplay:10.37,2013-03-27 12:39:00,
2013-03-27 05:44:00,52.2,45.5,29.90,SE,131,0.0,0.0,78,0.00,CLR,,0.00,WeatherDisplay:10.37,2013-03-27 12:44:00,
2013-03-27 05:49:00,52.2,45.5,29.90,SE,132,0.0,0.0,78,0.00,CLR,,0.00,WeatherDisplay:10.37,2013-03-27 12:49:00,
2013-03-27 05:54:00,52.3,45.6,29.90,SE,132,0.0,0.0,78,0.00,CLR,,0.00,WeatherDisplay:10.37,2013-03-27 12:54:00,
2013-03-27 05:59:00,52.3,45.6,29.90,SE,128,0.0,0.0,78,0.00,CLR,,0.00,WeatherDisplay:10.37,2013-03-27 12:59:00,
2013-03-27 06:04:00,52.3,45.6,29.90,SE,130,0.0,0.0,78,0.00,CLR,,0.00,WeatherDisplay:10.37,2013-03-27 13:04:00,
2013-03-27 06:09:00,52.4,45.7,29.90,SE,128,0.0,0.0,78,0.00,CLR,,0.00,WeatherDisplay:10.37,2013-03-27 13:09:00,
2013-03-27 06:14:00,52.4,45.7,29.90,SE,129,0.0,0.0,78,0.00,CLR,,0.00,WeatherDisplay:10.37,2013-03-27 13:14:00,
2013-03-27 06:19:00,52.3,45.6,29.90,SE,129,1.2,0.0,78,0.00,CLR,,0.00,WeatherDisplay:10.37,2013-03-27 13:19:00,
2013-03-27 06:24:00,52.3,45.6,29.90,SE,124,1.2,0.0,78,0.00,CLR,,0.00,WeatherDisplay:10.37,2013-03-27 13:24:00,
2013-03-27 06:29:00,52.3,45.6,29.90,ESE,122,0.0,0.0,78,0.00,CLR,,0.00,WeatherDisplay:10.37,2013-03-27 13:29:00,
2013-03-27 06:34:00,52.4,45.7,29.90,SE,126,1.2,1.2,78,0.00,CLR,,0.00,WeatherDisplay:10.37,2013-03-27 13:34:00,
2013-03-27 06:39:00,52.4,45.7,29.90,SE,128,1.2,0.0,78,0.00,CLR,,0.00,WeatherDisplay:10.37,2013-03-27 13:39:00,
2013-03-27 06:44:00,52.5,45.8,29.90,SE,128,1.2,0.0,78,0.00,CLR,,0.00,WeatherDisplay:10.37,2013-03-27 13:44:00,
2013-03-27 06:49:00,52.6,45.9,29.90,SE,135,0.0,0.1,78,0.00,CLR,,0.00,WeatherDisplay:10.37,2013-03-27 13:49:00,
2013-03-27 06:54:00,52.6,45.9,29.90,ESE,122,1.2,1.2,78,0.00,CLR,,0.00,WeatherDisplay:10.37,2013-03-27 13:54:00,
2013-03-27 06:59:00,52.6,45.9,29.90,ESE,122,1.2,0.0,78,0.00,CLR,,0.00,WeatherDisplay:10.37,2013-03-27 13:59:00,
2013-03-27 07:04:00,52.6,45.9,29.90,ESE,123,0.0,0.0,78,0.00,CLR,,0.00,WeatherDisplay:10.37,2013-03-27 14:04:00,
2013-03-27 07:09:00,52.6,46.3,29.91,SE,132,1.2,0.0,79,0.00,CLR,,0.00,WeatherDisplay:10.37,2013-03-27 14:09:00,
2013-03-27 07:14:00,52.6,46.3,29.91,SE,132,1.2,0.0,79,0.00,CLR,,0.00,WeatherDisplay:10.37,2013-03-27 14:14:00,
2013-03-27 07:19:00,52.7,46.4,29.91,SE,128,1.2,1.2,79,0.00,CLR,,0.00,WeatherDisplay:10.37,2013-03-27 14:19:00,
2013-03-27 07:24:00,52.8,46.5,29.91,SE,134,0.0,0.0,79,0.00,CLR,,0.00,WeatherDisplay:10.37,2013-03-27 14:24:00,
2013-03-27 07:29:00,52.9,46.6,29.92,SE,129,2.3,2.3,79,0.00,CLR,,0.00,WeatherDisplay:10.37,2013-03-27 14:29:00,
2013-03-27 07:34:00,53.0,46.7,29.92,SE,125,1.2,0.0,79,0.00,CLR,,0.00,WeatherDisplay:10.37,2013-03-27 14:34:00,
2013-03-27 07:39:00,53.1,46.4,29.92,SE,137,1.2,0.0,78,0.00,CLR,,0.00,WeatherDisplay:10.37,2013-03-27 14:39:00,
2013-03-27 07:44:00,53.2,46.5,29.92,SE,129,1.2,1.2,78,0.00,CLR,,0.00,WeatherDisplay:10.37,2013-03-27 14:44:00,
2013-03-27 07:49:00,53.4,46.7,29.92,SE,132,1.2,0.0,78,0.00,CLR,,0.00,WeatherDisplay:10.37,2013-03-27 14:49:00,
2013-03-27 07:54:00,53.5,47.1,29.93,ESE,122,1.2,1.2,79,0.00,CLR,,0.00,WeatherDisplay:10.37,2013-03-27 14:54:00,
2013-03-27 07:59:00,53.6,46.9,29.93,SSE,150,1.2,1.2,78,0.00,CLR,,0.00,WeatherDisplay:10.37,2013-03-27 14:59:00,
2013-03-27 08:04:00,53.7,47.0,29.93,South,186,1.2,0.0,78,0.00,CLR,,0.00,WeatherDisplay:10.37,2013-03-27 15:04:00,
2013-03-27 08:09:00,53.8,47.1,29.93,WSW,250,0.0,0.0,78,0.00,CLR,,0.00,WeatherDisplay:10.37,2013-03-27 15:09:00,
2013-03-27 08:14:00,54.0,47.3,29.93,SE,125,1.2,1.2,78,0.00,CLR,,0.00,WeatherDisplay:10.37,2013-03-27 15:14:00,
2013-03-27 08:19:00,54.2,47.5,29.93,SE,128,1.2,1.2,78,0.00,CLR,,0.00,WeatherDisplay:10.37,2013-03-27 15:19:00,
2013-03-27 08:24:00,54.4,47.7,29.93,West,262,1.2,0.0,78,0.00,CLR,,0.00,WeatherDisplay:10.37,2013-03-27 15:24:00,
2013-03-27 08:29:00,54.6,47.9,29.93,SE,129,1.2,0.0,78,0.00,CLR,,0.00,WeatherDisplay:10.37,2013-03-27 15:29:00,
2013-03-27 08:34:00,54.8,47.7,29.93,SE,129,0.0,0.2,77,0.00,CLR,,0.00,WeatherDisplay:10.37,2013-03-27 15:34:00,
2013-03-27 08:39:00,55.0,47.9,29.94,SE,140,1.2,1.2,77,0.00,CLR,,0.00,WeatherDisplay:10.37,2013-03-27 15:39:00,
2013-03-27 08:44:00,55.1,48.0,29.94,SSE,163,2.3,2.3,77,0.00,CLR,,0.00,WeatherDisplay:10.37,2013-03-27 15:44:00,
2013-03-27 08:49:00,55.4,48.3,29.94,SE,143,1.2,1.2,77,0.00,CLR,,0.00,WeatherDisplay:10.37,2013-03-27 15:49:00,
2013-03-27 08:54:00,55.8,48.7,29.94,SSW,204,1.0,1.0,77,0.00,CLR,,0.00,WeatherDisplay:10.37,2013-03-27 15:54:00,
2013-03-27 08:59:00,56.1,48.6,29.94,South,173,3.5,3.5,76,0.00,CLR,,0.00,WeatherDisplay:10.37,2013-03-27 15:59:00,
2013-03-27 09:04:00,56.5,48.7,29.94,SE,132,2.3,2.3,75,0.00,CLR,,0.00,WeatherDisplay:10.37,2013-03-27 16:04:00,
2013-03-27 09:09:00,56.9,49.1,29.94,ESE,117,1.2,1.2,75,0.00,CLR,,0.00,WeatherDisplay:10.37,2013-03-27 16:09:00,
2013-03-27 09:14:00,57.4,49.2,29.94,SE,132,1.2,0.0,74,0.00,CLR,,0.00,WeatherDisplay:10.37,2013-03-27 16:14:00,
2013-03-27 09:19:00,57.8,49.2,29.95,South,187,1.2,1.2,73,0.00,SCT,,0.00,WeatherDisplay:10.37,2013-03-27 16:19:00,
2013-03-27 09:24:00,58.0,49.0,29.95,SE,128,3.5,3.5,72,0.00,SCT,,0.00,WeatherDisplay:10.37,2013-03-27 16:24:00,
2013-03-27 09:29:00,58.3,49.3,29.95,SE,131,1.2,1.2,72,0.00,SCT,,0.00,WeatherDisplay:10.37,2013-03-27 16:29:00,
2013-03-27 09:34:00,58.6,49.2,29.95,SSE,157,2.3,2.3,71,0.00,FEW,,0.00,WeatherDisplay:10.37,2013-03-27 16:34:00,
2013-03-27 09:39:00,58.8,49.4,29.95,SE,134,1.2,1.2,71,0.00,FEW,,0.00,WeatherDisplay:10.37,2013-03-27 16:39:00,
2013-03-27 09:44:00,59.0,49.6,29.95,SE,135,1.2,1.2,71,0.00,FEW,,0.00,WeatherDisplay:10.37,2013-03-27 16:44:00,
2013-03-27 09:49:00,59.1,49.7,29.95,ESE,105,1.2,1.2,71,0.00,FEW,,0.00,WeatherDisplay:10.37,2013-03-27 16:49:00,
2013-03-27 09:54:00,59.6,49.8,29.95,SE,132,2.3,2.3,70,0.00,FEW,,0.00,WeatherDisplay:10.37,2013-03-27 16:54:00,
2013-03-27 09:59:00,59.9,49.7,29.95,SE,132,3.5,3.5,69,0.00,FEW,,0.00,WeatherDisplay:10.37,2013-03-27 16:59:00,
2013-03-27 10:04:00,60.1,50.3,29.95,SSE,165,2.3,2.3,70,0.00,CLR,,0.00,WeatherDisplay:10.37,2013-03-27 17:04:00,
2013-03-27 10:09:00,60.1,49.9,29.95,SW,231,1.2,1.2,69,0.00,CLR,,0.00,WeatherDisplay:10.37,2013-03-27 17:09:00,
2013-03-27 10:14:00,60.3,50.1,29.95,SE,126,2.3,2.3,69,0.00,CLR,,0.00,WeatherDisplay:10.37,2013-03-27 17:14:00,
2013-03-27 10:19:00,60.6,50.4,29.95,SE,132,1.2,1.2,69,0.00,CLR,,0.00,WeatherDisplay:10.37,2013-03-27 17:19:00,
2013-03-27 10:24:00,61.0,50.8,29.95,SW,230,1.2,1.2,69,0.00,CLR,,0.00,WeatherDisplay:10.37,2013-03-27 17:24:00,
2013-03-27 10:29:00,61.1,50.1,29.95,South,183,1.2,0.0,67,0.00,CLR,,0.00,WeatherDisplay:10.37,2013-03-27 17:29:00,
2013-03-27 10:34:00,61.1,50.5,29.95,SSW,207,1.2,0.0,68,0.00,CLR,,0.00,WeatherDisplay:10.37,2013-03-27 17:34:00,
2013-03-27 10:39:00,61.2,50.6,29.95,ESE,120,1.2,1.2,68,0.00,CLR,,0.00,WeatherDisplay:10.37,2013-03-27 17:39:00,
2013-03-27 10:44:00,61.5,50.8,29.95,SSW,200,1.2,1.2,68,0.00,CLR,,0.00,WeatherDisplay:10.37,2013-03-27 17:44:00,
2013-03-27 10:49:00,61.7,50.6,29.95,SSW,212,2.3,2.3,67,0.00,CLR,,0.00,WeatherDisplay:10.37,2013-03-27 17:49:00,
2013-03-27 10:54:00,62.1,50.6,29.95,SSE,163,1.2,1.2,66,0.00,CLR,,0.00,WeatherDisplay:10.37,2013-03-27 17:54:00,
2013-03-27 10:59:00,62.2,50.7,29.96,WSW,252,1.2,1.2,66,0.00,CLR,,0.00,WeatherDisplay:10.37,2013-03-27 17:59:00,
2013-03-27 11:04:00,62.6,51.1,29.95,SW,232,1.2,1.2,66,0.00,CLR,,0.00,WeatherDisplay:10.37,2013-03-27 18:04:00,
2013-03-27 11:09:00,62.8,50.9,29.95,East,86,1.2,0.0,65,0.00,CLR,,0.00,WeatherDisplay:10.37,2013-03-27 18:09:00,
2013-03-27 11:14:00,63.0,51.0,29.95,South,172,0.0,0.0,65,0.00,CLR,,0.00,WeatherDisplay:10.37,2013-03-27 18:14:00,
2013-03-27 11:19:00,63.6,50.8,29.95,SW,228,0.0,0.3,63,0.00,CLR,,0.00,WeatherDisplay:10.37,2013-03-27 18:19:00,
2013-03-27 11:24:00,64.0,51.1,29.95,SW,215,1.2,1.2,63,0.00,CLR,,0.00,WeatherDisplay:10.37,2013-03-27 18:24:00,
2013-03-27 11:29:00,64.7,50.9,29.95,WSW,258,1.2,1.2,61,0.00,CLR,,0.00,WeatherDisplay:10.37,2013-03-27 18:29:00,
2013-03-27 11:34:00,65.2,51.4,29.95,SW,232,0.0,0.1,61,0.00,CLR,,0.00,WeatherDisplay:10.37,2013-03-27 18:34:00,
2013-03-27 11:39:00,65.6,51.8,29.95,SSW,210,2.3,2.3,61,0.00,CLR,,0.00,WeatherDisplay:10.37,2013-03-27 18:39:00,
2013-03-27 11:44:00,66.0,51.7,29.95,SE,130,2.3,2.3,60,0.00,CLR,,0.00,WeatherDisplay:10.37,2013-03-27 18:44:00,
2013-03-27 11:49:00,66.4,51.6,29.95,NNW,328,1.2,1.2,59,0.00,CLR,,0.00,WeatherDisplay:10.37,2013-03-27 18:49:00,
2013-03-27 11:54:00,66.9,52.1,29.95,SSW,204,1.2,1.2,59,0.00,CLR,,0.00,WeatherDisplay:10.37,2013-03-27 18:54:00,
2013-03-27 11:59:00,67.7,52.4,29.95,SW,224,1.2,1.2,58,0.00,CLR,,0.00,WeatherDisplay:10.37,2013-03-27 18:59:00,
2013-03-27 12:04:00,67.9,52.1,29.95,WSW,253,1.2,1.2,57,0.00,CLR,,0.00,WeatherDisplay:10.37,2013-03-27 19:04:00,
2013-03-27 12:09:00,68.3,52.5,29.95,SSW,210,1.2,1.2,57,0.00,CLR,,0.00,WeatherDisplay:10.37,2013-03-27 19:09:00,
2013-03-27 12:14:00,69.2,52.8,29.95,SW,229,3.5,3.5,56,0.00,CLR,,0.00,WeatherDisplay:10.37,2013-03-27 19:14:00,
2013-03-27 12:19:00,69.8,52.4,29.95,WNW,288,2.3,2.3,54,0.00,CLR,,0.00,WeatherDisplay:10.37,2013-03-27 19:19:00,
2013-03-27 12:24:00,70.4,52.4,29.95,NW,305,2.3,2.3,53,0.00,CLR,,0.00,WeatherDisplay:10.37,2013-03-27 19:24:00,
2013-03-27 12:29:00,70.6,52.6,29.94,WNW,300,2.3,2.3,53,0.00,CLR,,0.00,WeatherDisplay:10.37,2013-03-27 19:29:00,
2013-03-27 12:34:00,71.0,52.0,29.94,West,272,1.2,1.2,51,0.00,CLR,,0.00,WeatherDisplay:10.37,2013-03-27 19:34:00,
2013-03-27 12:39:00,71.0,52.0,29.94,ESE,123,1.2,1.2,51,0.00,CLR,,0.00,WeatherDisplay:10.37,2013-03-27 19:39:00,
2013-03-27 12:44:00,71.0,52.0,29.94,West,265,2.3,0.0,51,0.00,CLR,,0.00,WeatherDisplay:10.37,2013-03-27 19:44:00,
2013-03-27 12:49:00,71.1,53.1,29.94,SW,219,1.2,1.2,53,0.00,CLR,,0.00,WeatherDisplay:10.37,2013-03-27 19:49:00,
2013-03-27 12:54:00,71.7,51.5,29.94,West,281,2.3,2.3,49,0.00,CLR,,0.00,WeatherDisplay:10.37,2013-03-27 19:54:00,
2013-03-27 12:59:00,71.9,51.1,29.93,NNW,330,1.2,1.2,48,0.00,CLR,,0.00,WeatherDisplay:10.37,2013-03-27 19:59:00,
2013-03-27 13:04:00,72.4,51.6,29.93,WNW,294,1.2,1.2,48,0.00,CLR,,0.00,WeatherDisplay:10.37,2013-03-27 20:04:00,
2013-03-27 13:09:00,72.6,50.6,29.93,South,190,1.2,1.2,46,0.00,CLR,,0.00,WeatherDisplay:10.37,2013-03-27 20:09:00,
2013-03-27 13:14:00,72.7,52.4,29.93,NW,325,1.2,1.2,49,0.00,CLR,,0.00,WeatherDisplay:10.37,2013-03-27 20:14:00,
2013-03-27 13:19:00,73.1,52.2,29.93,SW,232,3.5,3.5,48,0.00,CLR,,0.00,WeatherDisplay:10.37,2013-03-27 20:19:00,
2013-03-27 13:24:00,73.6,52.7,29.93,WNW,287,1.2,1.2,48,0.00,CLR,,0.00,WeatherDisplay:10.37,2013-03-27 20:24:00,
2013-03-27 13:29:00,74.2,52.7,29.93,NE,45,2.0,2.0,47,0.00,CLR,,0.00,WeatherDisplay:10.37,2013-03-27 20:29:00,
2013-03-27 13:34:00,74.2,52.1,29.93,WNW,283,3.5,3.5,46,0.00,CLR,,0.00,WeatherDisplay:10.37,2013-03-27 20:34:00,
2013-03-27 13:39:00,74.1,52.0,29.93,SW,221,0.0,0.3,46,0.00,CLR,,0.00,WeatherDisplay:10.37,2013-03-27 20:39:00,
2013-03-27 13:44:00,74.4,51.7,29.92,WNW,291,2.3,2.3,45,0.00,CLR,,0.00,WeatherDisplay:10.37,2013-03-27 20:44:00,
2013-03-27 13:49:00,74.7,51.3,29.92,SW,215,2.3,2.3,44,0.00,CLR,,0.00,WeatherDisplay:10.37,2013-03-27 20:49:00,
2013-03-27 13:54:00,74.8,52.6,29.92,WSW,255,0.0,0.0,46,0.00,CLR,,0.00,WeatherDisplay:10.37,2013-03-27 20:54:00,
2013-03-27 13:59:00,75.3,52.5,29.92,SSE,160,3.5,3.5,45,0.00,CLR,,0.00,WeatherDisplay:10.37,2013-03-27 20:59:00,
2013-03-27 14:04:00,75.3,51.9,29.92,West,278,3.0,3.0,44,0.00,CLR,,0.00,WeatherDisplay:10.37,2013-03-27 21:04:00,
2013-03-27 14:09:00,75.7,51.6,29.92,SSW,212,2.3,2.3,43,0.00,CLR,,0.00,WeatherDisplay:10.37,2013-03-27 21:09:00,
2013-03-27 14:14:00,76.0,51.9,29.92,ESE,122,3.5,3.5,43,0.00,CLR,,0.00,WeatherDisplay:10.37,2013-03-27 21:14:00,
2013-03-27 14:19:00,75.8,52.3,29.92,NW,307,3.5,3.5,44,0.00,CLR,,0.00,WeatherDisplay:10.37,2013-03-27 21:19:00,
2013-03-27 14:24:00,75.2,51.8,29.91,NNW,339,1.2,0.0,44,0.00,CLR,,0.00,WeatherDisplay:10.37,2013-03-27 21:24:00,
2013-03-27 14:29:00,74.9,52.1,29.91,SW,222,2.3,2.3,45,0.00,CLR,,0.00,WeatherDisplay:10.37,2013-03-27 21:29:00,
2013-03-27 14:34:00,75.1,52.3,29.91,West,262,3.0,3.0,45,0.00,CLR,,0.00,WeatherDisplay:10.37,2013-03-27 21:34:00,
2013-03-27 14:39:00,75.4,52.0,29.91,SSW,194,1.0,1.0,44,0.00,CLR,,0.00,WeatherDisplay:10.37,2013-03-27 21:39:00,
2013-03-27 14:44:00,75.7,52.8,29.91,West,270,3.5,3.5,45,0.00,CLR,,0.00,WeatherDisplay:10.37,2013-03-27 21:44:00,
2013-03-27 14:49:00,76.2,52.7,29.90,West,277,2.3,2.3,44,0.00,CLR,,0.00,WeatherDisplay:10.37,2013-03-27 21:49:00,
2013-03-27 14:54:00,76.9,52.7,29.90,West,267,1.2,1.2,43,0.00,CLR,,0.00,WeatherDisplay:10.37,2013-03-27 21:54:00,
2013-03-27 14:59:00,76.8,51.3,29.90,West,266,1.0,1.0,41,0.00,CLR,,0.00,WeatherDisplay:10.37,2013-03-27 21:59:00,
2013-03-27 15:04:00,77.1,49.5,29.90,West,281,3.5,3.5,38,0.00,CLR,,0.00,WeatherDisplay:10.37,2013-03-27 22:04:00,
2013-03-27 15:09:00,77.5,49.2,29.90,NNW,345,3.5,3.5,37,0.00,CLR,,0.00,WeatherDisplay:10.37,2013-03-27 22:09:00,
2013-03-27 15:14:00,77.4,49.1,29.90,NNE,30,4.6,4.6,37,0.00,CLR,,0.00,WeatherDisplay:10.37,2013-03-27 22:14:00,
2013-03-27 15:19:00,77.5,47.7,29.90,NNW,333,2.3,2.3,35,0.00,CLR,,0.00,WeatherDisplay:10.37,2013-03-27 22:19:00,
2013-03-27 15:24:00,77.7,50.1,29.90,SSE,166,2.3,2.3,38,0.00,CLR,,0.00,WeatherDisplay:10.37,2013-03-27 22:24:00,
2013-03-27 15:29:00,78.1,49.0,29.89,NW,305,3.5,3.5,36,0.00,CLR,,0.00,WeatherDisplay:10.37,2013-03-27 22:29:00,
2013-03-27 15:34:00,77.4,51.2,29.89,West,266,1.2,1.2,40,0.00,CLR,,0.00,WeatherDisplay:10.37,2013-03-27 22:34:00,
2013-03-27 15:39:00,77.6,50.0,29.89,North,352,3.0,3.0,38,0.00,CLR,,0.00,WeatherDisplay:10.37,2013-03-27 22:39:00,
2013-03-27 15:44:00,77.5,49.9,29.89,WSW,256,3.5,3.5,38,0.00,CLR,,0.00,WeatherDisplay:10.37,2013-03-27 22:44:00,
2013-03-27 15:49:00,78.1,51.1,29.89,West,260,2.3,2.3,39,0.00,CLR,,0.00,WeatherDisplay:10.37,2013-03-27 22:49:00,
2013-03-27 15:54:00,77.7,51.5,29.89,NNW,345,3.5,3.5,40,0.00,CLR,,0.00,WeatherDisplay:10.37,2013-03-27 22:54:00,
2013-03-27 15:59:00,77.8,50.2,29.89,NNW,336,6.0,6.0,38,0.00,CLR,,0.00,WeatherDisplay:10.37,2013-03-27 22:59:00,
2013-03-27 16:04:00,77.8,50.9,29.88,North,5,2.3,2.3,39,0.00,CLR,,0.00,WeatherDisplay:10.37,2013-03-27 23:04:00,
2013-03-27 16:09:00,78.1,49.7,29.89,NNW,345,3.5,3.5,37,0.00,CLR,,0.00,WeatherDisplay:10.37,2013-03-27 23:09:00,
2013-03-27 16:14:00,78.1,50.4,29.88,NW,315,4.6,4.6,38,0.00,CLR,,0.00,WeatherDisplay:10.37,2013-03-27 23:14:00,
2013-03-27 16:19:00,78.4,50.0,29.88,NW,324,4.0,4.0,37,0.00,CLR,,0.00,WeatherDisplay:10.37,2013-03-27 23:19:00,
2013-03-27 16:24:00,78.1,48.2,29.88,NNW,345,4.6,4.6,35,0.00,CLR,,0.00,WeatherDisplay:10.37,2013-03-27 23:24:00,
2013-03-27 16:29:00,77.9,48.8,29.88,North,6,3.5,3.5,36,0.00,CLR,,0.00,WeatherDisplay:10.37,2013-03-27 23:29:00,
2013-03-27 16:34:00,77.9,48.0,29.88,North,354,3.5,3.5,35,0.00,CLR,,0.00,WeatherDisplay:10.37,2013-03-27 23:34:00,
2013-03-27 16:39:00,77.5,46.9,29.88,NNW,335,4.0,4.0,34,0.00,CLR,,0.00,WeatherDisplay:10.37,2013-03-27 23:39:00,
2013-03-27 16:44:00,77.3,48.3,29.88,SW,225,3.5,3.5,36,0.00,CLR,,0.00,WeatherDisplay:10.37,2013-03-27 23:44:00,
2013-03-27 16:49:00,78.1,48.2,29.88,NNW,330,2.3,2.3,35,0.00,CLR,,0.00,WeatherDisplay:10.37,2013-03-27 23:49:00,
2013-03-27 16:54:00,77.9,48.0,29.88,North,352,2.0,2.0,35,0.00,CLR,,0.00,WeatherDisplay:10.37,2013-03-27 23:54:00,
2013-03-27 16:59:00,77.8,47.9,29.88,NW,324,3.5,3.5,35,0.00,CLR,,0.00,WeatherDisplay:10.37,2013-03-27 23:59:00,
2013-03-27 17:04:00,77.1,47.3,29.88,NNW,345,3.5,3.5,35,0.00,CLR,,0.00,WeatherDisplay:10.37,2013-03-28 00:04:00,
2013-03-27 17:09:00,76.6,47.6,29.88,North,6,2.3,2.3,36,0.00,CLR,,0.00,WeatherDisplay:10.37,2013-03-28 00:09:00,
2013-03-27 17:14:00,76.7,47.0,29.88,WNW,302,3.5,3.5,35,0.00,CLR,,0.00,WeatherDisplay:10.37,2013-03-28 00:14:00,
2013-03-27 17:19:00,76.8,47.8,29.87,WSW,246,2.3,2.3,36,0.00,CLR,,0.00,WeatherDisplay:10.37,2013-03-28 00:19:00,
2013-03-27 17:24:00,77.0,48.7,29.88,NNW,339,3.5,3.5,37,0.00,CLR,,0.00,WeatherDisplay:10.37,2013-03-28 00:24:00,
2013-03-27 17:29:00,76.6,49.1,29.87,WSW,238,0.0,0.0,38,0.00,CLR,,0.00,WeatherDisplay:10.37,2013-03-28 00:29:00,
2013-03-27 17:34:00,76.8,49.3,29.87,SW,229,1.2,1.2,38,0.00,CLR,,0.00,WeatherDisplay:10.37,2013-03-28 00:34:00,
2013-03-27 17:39:00,76.9,49.4,29.87,NNW,333,3.5,3.5,38,0.00,CLR,,0.00,WeatherDisplay:10.37,2013-03-28 00:39:00,
2013-03-27 17:44:00,77.0,48.0,29.87,WNW,296,1.2,1.2,36,0.00,CLR,,0.00,WeatherDisplay:10.37,2013-03-28 00:44:00,
2013-03-27 17:49:00,77.1,48.8,29.87,NNW,328,3.0,3.0,37,0.00,CLR,,0.00,WeatherDisplay:10.37,2013-03-28 00:49:00,
2013-03-27 17:54:00,76.7,49.2,29.87,North,359,0.0,0.1,38,0.00,CLR,,0.00,WeatherDisplay:10.37,2013-03-28 00:54:00,
2013-03-27 17:59:00,77.1,49.5,29.87,North,349,2.3,2.3,38,0.00,CLR,,0.00,WeatherDisplay:10.37,2013-03-28 00:59:00,
2013-03-27 18:04:00,77.4,49.1,29.87,NNE,16,3.5,3.5,37,0.00,CLR,,0.00,WeatherDisplay:10.37,2013-03-28 01:04:00,
2013-03-27 18:09:00,77.1,49.5,29.87,South,173,1.2,1.2,38,0.00,CLR,,0.00,WeatherDisplay:10.37,2013-03-28 01:09:00,
2013-03-27 18:14:00,76.2,49.4,29.87,WSW,257,2.3,2.3,39,0.00,CLR,,0.00,WeatherDisplay:10.37,2013-03-28 01:14:00,
2013-03-27 18:19:00,75.2,49.9,29.88,NNW,328,1.2,1.2,41,0.00,CLR,,0.00,WeatherDisplay:10.37,2013-03-28 01:19:00,
2013-03-27 18:24:00,74.6,50.0,29.88,NE,35,0.0,0.1,42,0.00,CLR,,0.00,WeatherDisplay:10.37,2013-03-28 01:24:00,
2013-03-27 18:29:00,74.3,49.1,29.88,WNW,302,1.2,1.2,41,0.00,CLR,,0.00,WeatherDisplay:10.37,2013-03-28 01:29:00,
2013-03-27 18:34:00,74.0,48.8,29.88,WNW,283,0.0,0.3,41,0.00,CLR,,0.00,WeatherDisplay:10.37,2013-03-28 01:34:00,
2013-03-27 18:39:00,73.7,49.2,29.88,West,262,1.2,0.0,42,0.00,CLR,,0.00,WeatherDisplay:10.37,2013-03-28 01:39:00,
2013-03-27 18:44:00,73.4,48.9,29.88,WSW,258,3.5,3.5,42,0.00,CLR,,0.00,WeatherDisplay:10.37,2013-03-28 01:44:00,
2013-03-27 18:49:00,72.9,49.1,29.88,West,276,0.0,0.5,43,0.00,CLR,,0.00,WeatherDisplay:10.37,2013-03-28 01:49:00,
2013-03-27 18:54:00,72.4,49.3,29.88,West,262,0.0,0.0,44,0.00,CLR,,0.00,WeatherDisplay:10.37,2013-03-28 01:54:00,
2013-03-27 18:59:00,71.9,49.4,29.88,WNW,285,0.0,0.0,45,0.00,CLR,,0.00,WeatherDisplay:10.37,2013-03-28 01:59:00,
2013-03-27 19:04:00,71.5,49.0,29.88,West,271,1.2,1.2,45,0.00,CLR,,0.00,WeatherDisplay:10.37,2013-03-28 02:04:00,
2013-03-27 19:09:00,71.1,49.3,29.88,West,271,0.0,0.0,46,0.00,CLR,,0.00,WeatherDisplay:10.37,2013-03-28 02:09:00,
2013-03-27 19:14:00,70.7,48.9,29.88,West,271,0.0,0.0,46,0.00,CLR,,0.00,WeatherDisplay:10.37,2013-03-28 02:14:00,
2013-03-27 19:19:00,70.2,49.0,29.88,West,271,0.0,0.0,47,0.00,CLR,,0.00,WeatherDisplay:10.37,2013-03-28 02:19:00,
2013-03-27 19:24:00,69.8,49.2,29.88,West,271,0.0,0.0,48,0.00,CLR,,0.00,WeatherDisplay:10.37,2013-03-28 02:24:00,
2013-03-27 19:29:00,69.4,48.9,29.88,West,271,0.0,0.0,48,0.00,CLR,,0.00,WeatherDisplay:10.37,2013-03-28 02:29:00,
2013-03-27 19:34:00,69.0,49.6,29.88,West,271,0.0,0.0,50,0.00,CLR,,0.00,WeatherDisplay:10.37,2013-03-28 02:34:00,
2013-03-27 19:39:00,68.5,49.7,29.88,West,271,0.0,0.0,51,0.00,CLR,,0.00,WeatherDisplay:10.37,2013-03-28 02:39:00,
2013-03-27 19:44:00,67.9,49.1,29.88,West,271,0.0,0.0,51,0.00,CLR,,0.00,WeatherDisplay:10.37,2013-03-28 02:44:00,
2013-03-27 19:49:00,67.2,49.0,29.89,West,271,0.0,0.0,52,0.00,CLR,,0.00,WeatherDisplay:10.37,2013-03-28 02:49:00,
2013-03-27 19:54:00,66.9,49.7,29.89,West,271,0.0,0.0,54,0.00,CLR,,0.00,WeatherDisplay:10.37,2013-03-28 02:54:00,
2013-03-27 19:59:00,66.6,49.9,29.89,West,271,0.0,0.0,55,0.00,CLR,,0.00,WeatherDisplay:10.37,2013-03-28 02:59:00,
2013-03-27 20:04:00,66.2,50.0,29.89,West,271,0.0,0.0,56,0.00,CLR,,0.00,WeatherDisplay:10.37,2013-03-28 03:04:00,
2013-03-27 20:09:00,65.7,49.6,29.89,West,271,0.0,0.0,56,0.00,CLR,,0.00,WeatherDisplay:10.37,2013-03-28 03:09:00,
2013-03-27 20:14:00,65.3,49.7,29.89,West,271,0.0,0.0,57,0.00,CLR,,0.00,WeatherDisplay:10.37,2013-03-28 03:14:00,
2013-03-27 20:19:00,65.0,49.4,29.89,West,271,0.0,0.0,57,0.00,CLR,,0.00,WeatherDisplay:10.37,2013-03-28 03:19:00,
2013-03-27 20:24:00,64.8,49.2,29.90,West,271,0.0,0.0,57,0.00,CLR,,0.00,WeatherDisplay:10.37,2013-03-28 03:24:00,
2013-03-27 20:29:00,64.5,48.9,29.90,West,271,0.0,0.0,57,0.00,CLR,,0.00,WeatherDisplay:10.37,2013-03-28 03:29:00,
2013-03-27 20:34:00,64.8,49.2,29.90,West,271,0.0,0.0,57,0.00,SCT,,0.00,WeatherDisplay:10.37,2013-03-28 03:34:00,
2013-03-27 20:39:00,65.0,49.4,29.90,West,271,0.0,0.0,57,0.00,SCT,,0.00,WeatherDisplay:10.37,2013-03-28 03:39:00,
2013-03-27 20:44:00,64.7,49.6,29.91,West,271,0.0,0.0,58,0.00,SCT,,0.00,WeatherDisplay:10.37,2013-03-28 03:44:00,
2013-03-27 20:49:00,64.4,49.8,29.91,West,271,0.0,0.0,59,0.00,SCT,,0.00,WeatherDisplay:10.37,2013-03-28 03:49:00,
2013-03-27 20:54:00,64.5,49.8,29.91,SW,215,0.0,0.0,59,0.00,SCT,,0.00,WeatherDisplay:10.37,2013-03-28 03:54:00,
2013-03-27 20:59:00,64.6,49.9,29.92,SW,215,0.0,0.0,59,0.00,SCT,,0.00,WeatherDisplay:10.37,2013-03-28 03:59:00,
2013-03-27 21:00:00,64.6,49.9,29.92,SW,215,0.0,0.0,59,0.00,SCT,,0.00,WeatherDisplay:10.37,2013-03-28 04:00:00,
2013-03-27 21:05:00,64.9,49.8,29.92,SW,219,1.2,1.2,58,0.00,OVC,,0.00,WeatherDisplay:10.37,2013-03-28 04:05:00,
2013-03-27 21:10:00,65.1,50.9,29.92,SSE,155,1.2,1.2,60,0.00,OVC,,0.00,WeatherDisplay:10.37,2013-03-28 04:10:00,
2013-03-27 21:15:00,65.1,51.8,29.92,SSW,193,1.2,1.2,62,0.00,OVC,,0.00,WeatherDisplay:10.37,2013-03-28 04:15:00,
2013-03-27 21:20:00,65.0,51.7,29.92,SSW,198,1.2,1.2,62,0.00,OVC,,0.00,WeatherDisplay:10.37,2013-03-28 04:20:00,
2013-03-27 21:25:00,64.9,51.6,29.93,SSW,210,1.0,0.0,62,0.00,OVC,,0.00,WeatherDisplay:10.37,2013-03-28 04:25:00,
2013-03-27 21:30:00,64.8,51.5,29.93,South,177,1.2,1.3,62,0.00,OVC,,0.00,WeatherDisplay:10.37,2013-03-28 04:30:00,
2013-03-27 21:35:00,64.8,51.5,29.93,SW,226,1.0,1.0,62,0.00,OVC,,0.00,WeatherDisplay:10.37,2013-03-28 04:35:00,
2013-03-27 21:40:00,64.6,51.7,29.93,SSW,194,0.0,0.0,63,0.00,OVC,,0.00,WeatherDisplay:10.37,2013-03-28 04:40:00,
2013-03-27 21:45:00,64.5,51.6,29.93,SSW,209,1.2,0.0,63,0.00,OVC,,0.00,WeatherDisplay:10.37,2013-03-28 04:45:00,
2013-03-27 21:50:00,64.3,51.4,29.94,SSE,165,1.2,1.2,63,0.00,OVC,,0.00,WeatherDisplay:10.37,2013-03-28 04:50:00,
2013-03-27 21:55:00,64.2,51.8,29.94,WSW,240,1.2,1.2,64,0.00,OVC,,0.00,WeatherDisplay:10.37,2013-03-28 04:55:00,
2013-03-27 22:00:00,64.0,51.6,29.95,WSW,240,0.0,0.0,64,0.00,OVC,,0.00,WeatherDisplay:10.37,2013-03-28 05:00:00,
2013-03-27 22:05:00,63.8,51.4,29.95,East,99,0.0,0.6,64,0.00,OVC,,0.00,WeatherDisplay:10.37,2013-03-28 05:05:00,
2013-03-27 22:10:00,63.6,51.6,29.95,SE,126,1.2,1.2,65,0.00,OVC,,0.00,WeatherDisplay:10.37,2013-03-28 05:10:00,
2013-03-27 22:15:00,63.4,51.4,29.95,SE,126,0.0,0.0,65,0.00,OVC,,0.00,WeatherDisplay:10.37,2013-03-28 05:15:00,
2013-03-27 22:20:00,63.3,51.7,29.95,ESE,123,0.0,0.4,66,0.00,OVC,,0.00,WeatherDisplay:10.37,2013-03-28 05:20:00,
2013-03-27 22:25:00,63.1,51.6,29.95,ESE,122,1.2,0.0,66,0.00,OVC,,0.00,WeatherDisplay:10.37,2013-03-28 05:25:00,
2013-03-27 22:30:00,63.1,51.6,29.95,ESE,122,1.2,0.0,66,0.00,OVC,,0.00,WeatherDisplay:10.37,2013-03-28 05:30:00,
2013-03-27 22:35:00,62.9,51.4,29.96,WSW,240,0.0,0.0,66,0.00,BKN,,0.00,WeatherDisplay:10.37,2013-03-28 05:35:00,
2013-03-27 22:40:00,62.9,51.8,29.96,West,262,0.0,0.0,67,0.00,BKN,,0.00,WeatherDisplay:10.37,2013-03-28 05:40:00,
2013-03-27 22:45:00,62.9,51.4,29.96,SE,125,1.2,0.0,66,0.00,BKN,,0.00,WeatherDisplay:10.37,2013-03-28 05:45:00,
2013-03-27 22:50:00,62.9,51.8,29.96,SE,128,1.2,0.0,67,0.00,BKN,,0.00,WeatherDisplay:10.37,2013-03-28 05:50:00,
2013-03-27 22:55:00,62.9,51.4,29.97,SE,128,1.2,0.0,66,0.00,BKN,,0.00,WeatherDisplay:10.37,2013-03-28 05:55:00,
2013-03-27 23:00:00,62.8,51.3,29.97,SE,131,0.0,0.0,66,0.00,BKN,,0.00,WeatherDisplay:10.37,2013-03-28 06:00:00,
2013-03-27 23:05:00,62.6,51.5,29.97,SE,131,0.0,0.0,67,0.00,FEW,,0.00,WeatherDisplay:10.37,2013-03-28 06:05:00,
2013-03-27 23:10:00,62.4,51.3,29.97,SE,127,0.0,0.0,67,0.00,FEW,,0.00,WeatherDisplay:10.37,2013-03-28 06:10:00,
2013-03-27 23:15:00,62.2,51.1,29.97,SE,127,0.0,0.0,67,0.00,FEW,,0.00,WeatherDisplay:10.37,2013-03-28 06:15:00,
2013-03-27 23:20:00,61.9,51.2,29.97,SE,126,0.0,0.0,68,0.00,FEW,,0.00,WeatherDisplay:10.37,2013-03-28 06:20:00,
2013-03-27 23:25:00,61.6,50.9,29.97,SE,125,0.0,0.0,68,0.00,FEW,,0.00,WeatherDisplay:10.37,2013-03-28 06:25:00,
2013-03-27 23:30:00,61.4,51.1,29.97,SE,125,0.0,0.0,69,0.00,FEW,,0.00,WeatherDisplay:10.37,2013-03-28 06:30:00,
2013-03-27 23:35:00,61.1,50.8,29.97,SE,126,0.0,0.0,69,0.00,OVC,,0.00,WeatherDisplay:10.37,2013-03-28 06:35:00,
2013-03-27 23:40:00,60.9,51.0,29.98,SE,126,0.0,0.0,70,0.00,OVC,,0.00,WeatherDisplay:10.37,2013-03-28 06:40:00,
2013-03-27 23:45:00,60.7,50.9,29.98,SE,126,0.0,0.0,70,0.00,OVC,,0.00,WeatherDisplay:10.37,2013-03-28 06:45:00,
2013-03-27 23:50:00,60.6,51.1,29.98,SE,125,1.2,1.2,71,0.00,OVC,,0.00,WeatherDisplay:10.37,2013-03-28 06:50:00,
2013-03-27 23:55:00,60.3,50.9,29.98,SE,128,0.0,0.0,71,0.00,OVC,,0.00,WeatherDisplay:10.37,2013-03-28 06:55:00,